Wind_Speed
57 59 66 72 72 73 77 75 74 70 69 69 66 67 66 66 66 64 65 65 61 58 55 55 51 56 75 89 92 92 91 85 84 87 96 94 90 89 81 77 69 68 64 66 68
65 68 77 78 80 78 80 76 75 75 74 72 72 72 71 70 71 71 72 71 67 63 62 60 58 53 61 82 92 93 89 87 92 90 92 96 95 94 87 79 76 69 70 65 69
74 80 83 84 83 81 82 83 80 81 79 78 74 75 75 76 75 75 79 77 73 68 67 64 63 59 55 65 84 93 91 92 92 93 92 95 100 95 92 86 83 74 71 70 67
80 83 86 87 88 86 85 84 87 90 86 82 81 78 77 76 82 81 86 83 80 77 72 68 67 64 59 58 67 85 94 96 92 93 100 94 101 98 96 92 84 81 74 73 70
85 84 86 89 88 87 85 84 100 100 100 95 92 82 77 76 87 88 88 88 86 83 80 74 69 69 65 61 65 74 89 99 95 97 97 99 98 101 100 96 89 85 81 75 74
87 90 93 84 85 83 90 102 95 92 92 90 87 88 79 79 92 85 95 90 90 88 85 80 72 71 69 68 61 66 84 92 99 98 98 96 100 99 100 96 94 89 85 80 75
93 98 97 98 86 103 104 99 82 72 69 68 71 74 79 82 86 85 90 96 92 89 88 87 79 75 74 72 70 65 74 86 95 99 99 99 97 98 99 97 98 95 89 86 81
100 103 98 86 98 98 101 83 67 57 53 53 57 63 67 73 86 90 89 94 95 92 90 89 85 79 79 76 72 68 68 76 81 95 98 99 94 98 99 93 95 98 94 91 88
107 102 98 97 95 98 89 73 57 48 47 47 46 50 57 68 81 91 92 94 98 99 95 91 86 85 79 76 76 69 67 68 75 81 95 98 98 96 97 99 93 97 99 96 93
107 104 95 90 99 97 80 66 61 50 40 37 39 38 48 60 68 81 94 97 96 99 99 93 89 86 83 78 69 66 71 70 72 76 84 98 100 99 94 97 98 94 101 102 98
106 108 98 89 101 89 78 63 58 55 50 36 30 31 37 48 57 70 87 99 101 101 98 98 93 82 75 75 82 78 78 75 72 70 78 91 101 99 100 95 99 97 97 103 104
109 106 99 92 94 86 75 62 57 48 45 38 27 24 27 35 48 59 75 94 103 102 102 102 88 89 88 86 84 81 76 75 75 70 76 81 91 99 100 98 96 99 97 102 105
105 111 102 94 91 85 73 63 55 49 43 40 35 25 23 26 39 52 62 78 98 108 103 96 94 94 92 86 85 82 79 78 76 73 75 76 81 94 98 98 97 95 99 96 99
110 110 100 95 88 83 74 65 60 52 44 41 32 24 21 23 28 41 52 64 83 100 104 103 103 100 94 89 88 86 84 80 81 77 75 72 75 80 88 97 97 95 95 99 98
118 113 104 92 88 83 73 64 57 52 49 38 29 21 17 20 23 31 42 52 68 88 104 108 106 99 97 94 92 88 86 81 82 79 78 74 73 75 77 89 95 97 95 94 95
123 115 104 94 88 82 68 62 56 50 48 37 27 21 12 15 20 26 36 47 59 76 94 105 105 102 102 100 98 91 87 84 85 81 75 73 72 70 73 75 88 95 95 94 92
125 118 104 95 84 78 65 60 53 49 46 36 26 20 13 9 15 22 30 42 54 67 84 101 107 108 108 105 103 95 91 89 88 77 70 72 73 71 71 72 74 86 94 94 94
128 125 102 97 86 73 63 58 54 49 45 38 30 21 14 7 7 19 28 37 47 59 78 92 101 108 107 103 92 85 84 82 79 75 69 66 72 69 69 70 69 71 83 94 95
126 126 109 95 82 69 60 56 54 49 44 38 27 26 16 8 2 14 23 31 41 55 69 86 98 100 101 102 99 98 95 89 82 80 70 67 68 67 67 65 68 67 69 79 93
127 125 112 92 82 69 57 54 48 45 42 37 30 22 17 7 1 9 19 28 37 48 63 83 93 95 98 100 100 92 94 84 81 77 74 68 61 63 63 64 64 66 66 68 77
123 123 113 93 83 65 55 52 45 41 38 35 29 21 17 11 5 9 17 25 35 46 60 77 89 96 99 93 90 98 94 89 83 78 73 66 63 55 59 61 62 63 65 65 66
121 127 112 93 81 62 51 45 40 35 34 33 29 24 18 13 8 13 18 27 35 47 62 82 88 89 77 85 89 92 91 84 81 76 70 69 63 59 55 58 61 62 63 65 66
121 130 113 96 81 61 50 42 35 30 31 31 26 20 18 15 11 15 17 26 36 46 58 69 86 91 95 94 94 93 88 86 82 76 73 68 65 61 56 57 57 60 61 61 62
120 127 117 99 82 60 51 43 33 27 27 27 24 22 20 15 15 16 18 25 36 52 63 67 75 75 71 69 75 81 81 82 81 75 73 70 65 61 57 55 56 57 58 60 60
118 123 117 99 81 58 46 39 31 23 23 23 22 20 20 19 16 15 18 23 33 44 47 71 78 81 82 82 81 82 80 79 79 75 74 72 67 61 59 57 56 57 60 60 62
117 121 117 97 76 57 43 39 28 20 18 19 21 20 20 19 16 19 20 23 29 35 44 65 77 78 80 78 77 77 77 79 79 77 73 70 65 63 62 60 58 58 59 59 60
117 123 115 99 74 57 41 35 27 17 14 16 18 19 22 19 21 20 21 24 28 36 49 64 74 74 75 75 75 75 75 77 77 75 72 70 67 65 63 62 63 61 58 57 56
Wind_Direction
322 317 314 314 311 310 306 302 298 289 285 277 272 261 256 252 247 244 244 242 244 241 237 238 232 223 224 224 223 224 222 220 221 222 223 224 226 222 216 212 213 220 215 222 223
325 323 323 319 315 309 305 299 292 290 280 277 270 264 254 249 245 242 240 239 238 238 238 238 239 233 221 223 223 223 222 220 221 221 222 221 224 225 220 214 214 218 218 220 224
328 326 325 322 314 306 302 298 293 286 280 274 271 263 255 246 244 239 238 237 234 232 235 234 237 236 228 220 223 222 221 220 219 221 222 219 222 224 224 218 215 215 223 217 223
328 327 323 319 314 306 300 293 288 291 282 274 270 266 258 244 241 237 235 234 231 230 229 231 232 234 232 224 220 223 221 221 220 220 222 220 220 222 224 222 217 215 218 224 219
328 328 322 318 313 305 299 301 297 293 287 284 277 272 262 252 239 235 232 233 231 228 226 226 228 230 232 229 220 220 220 220 219 220 221 221 221 221 224 224 221 217 216 221 225
330 329 327 322 314 306 308 306 298 289 286 280 275 268 263 248 245 234 231 228 228 228 225 223 225 228 230 232 226 223 218 219 220 221 221 222 222 222 223 222 223 221 218 218 224
330 326 326 321 316 319 319 313 307 298 288 277 270 260 252 246 237 235 229 226 225 226 226 223 221 223 227 229 230 226 221 219 220 220 222 224 223 222 223 222 222 223 222 219 219
332 329 327 326 322 327 323 319 313 305 293 280 269 258 249 240 229 226 225 226 222 223 224 223 220 219 223 225 228 227 224 220 220 221 220 225 224 222 223 222 222 223 224 223 219
331 332 333 328 332 332 328 326 321 314 302 290 274 262 250 242 231 221 221 220 221 220 221 221 218 217 217 221 225 226 226 223 222 222 219 222 223 223 222 223 222 222 224 224 221
336 337 339 335 335 334 335 335 332 322 317 300 284 264 248 244 234 226 220 218 219 219 218 216 217 216 214 217 223 227 227 224 224 222 222 220 224 222 222 221 223 222 223 225 225
337 340 339 339 338 340 340 341 338 326 325 316 296 271 252 240 237 228 222 219 216 218 217 217 215 216 215 214 217 220 222 223 223 225 223 222 222 223 223 220 221 222 224 225 226
341 345 343 343 342 343 344 345 339 331 326 326 311 280 259 237 232 228 223 218 218 216 216 216 213 214 213 213 216 218 220 223 222 221 222 222 225 225 223 221 220 221 222 225 226
351 349 346 344 343 347 346 345 342 341 336 329 320 301 272 244 228 226 222 220 216 216 213 213 214 215 214 212 214 215 216 218 223 222 225 225 225 226 225 224 222 222 223 225 228
352 351 349 348 346 348 348 348 343 344 338 333 318 308 280 256 233 224 221 219 214 215 213 212 213 212 212 212 212 212 214 216 219 221 226 227 227 226 228 226 224 223 223 226 228
354 353 351 348 349 350 349 349 346 341 342 334 323 311 285 259 237 223 218 215 213 210 211 210 210 210 210 212 212 210 213 215 217 220 222 225 229 228 229 229 225 226 225 226 227
356 355 350 349 348 350 350 349 348 344 337 337 330 321 295 264 236 222 214 213 211 208 206 208 210 209 209 211 211 207 211 214 216 219 221 224 229 230 232 231 231 228 227 228 228
357 356 351 350 350 350 350 350 348 347 346 344 339 332 325 287 235 221 212 208 209 205 202 205 206 206 208 210 211 206 208 211 214 216 220 223 227 230 232 234 233 232 231 228 230
-0 355 353 351 351 351 351 351 351 352 348 348 346 345 337 328 228 216 211 205 204 203 199 204 205 205 206 210 212 209 211 214 215 215 222 226 228 230 232 234 237 236 234 233 232
360 355 354 351 350 352 352 352 352 352 351 350 351 351 358 356 212 208 208 203 198 199 197 199 200 205 204 207 208 206 207 209 210 211 215 224 228 230 234 236 237 238 238 237 235
359 357 354 352 353 352 353 352 352 353 355 352 358 358 1 13 120 176 190 191 191 196 193 195 198 198 204 204 204 206 208 208 210 210 215 222 225 227 228 234 236 238 241 242 240
357 -0 355 354 354 355 354 352 352 354 356 358 357 6 18 21 76 140 163 178 180 186 189 192 193 197 199 202 202 205 205 205 207 210 212 219 226 230 234 235 239 240 241 244 246
357 0 356 355 357 356 355 350 352 359 358 4 5 12 26 42 85 124 148 162 173 181 185 189 192 195 198 199 201 203 204 206 205 211 214 219 222 229 235 237 239 242 244 246 248
358 359 359 356 358 356 355 352 358 3 3 7 13 21 31 47 81 111 134 158 166 176 190 193 192 191 192 196 197 200 202 202 205 208 214 221 224 228 235 237 238 243 247 249 251
359 358 359 356 358 356 355 349 356 4 9 10 19 28 40 58 80 106 132 155 168 176 184 188 192 190 197 196 198 201 201 204 204 209 216 221 224 229 235 236 241 243 247 252 256
357 359 358 357 356 358 354 348 348 9 15 19 33 39 54 58 90 105 133 153 170 188 188 182 186 190 190 191 194 199 202 204 207 211 217 219 223 229 233 235 238 242 246 250 254
357 357 357 358 357 358 354 347 349 8 23 28 39 52 60 66 88 111 131 150 167 180 179 184 185 187 188 191 194 197 199 204 207 212 217 222 225 230 232 235 240 244 248 252 255
358 356 359 358 357 359 354 346 351 1 22 42 47 59 72 75 89 102 123 141 157 171 176 182 186 187 190 192 195 196 198 203 209 213 217 222 227 230 234 238 244 248 252 255 260
Height
10792 10782 10773 10763 10753 10745 10736 10727 10720 10713 10708 10706 10707 10708 10709 10710 10711 10713 10713 10716 10723 10728 10731 10733 10738 10742 10751 10761 10773 10781 10801 10819 10828 10833 10834 10843 10859 10869 10886 10894 10901 10903 10912 10916 10924
10775 10763 10752 10741 10729 10716 10704 10695 10687 10682 10678 10677 10676 10678 10683 10686 10687 10691 10689 10694 10703 10711 10714 10719 10723 10729 10737 10746 10756 10770 10786 10801 10801 10809 10815 10833 10840 10853 10871 10883 10891 10895 10900 10909 10915
10757 10745 10731 10718 10704 10690 10678 10665 10656 10648 10642 10639 10639 10642 10651 10658 10661 10665 10665 10669 10681 10691 10694 10701 10707 10714 10723 10730 10742 10753 10770 10771 10784 10796 10797 10814 10823 10845 10852 10870 10878 10886 10890 10899 10906
10741 10726 10711 10695 10679 10662 10646 10630 10617 10610 10601 10598 10600 10604 10611 10624 10628 10635 10633 10643 10653 10665 10673 10681 10689 10697 10706 10717 10723 10732 10743 10756 10770 10775 10778 10798 10806 10826 10838 10849 10870 10877 10883 10887 10896
10724 10707 10691 10672 10654 10634 10616 10601 10586 10569 10559 10556 10556 10564 10574 10587 10589 10603 10608 10617 10629 10640 10650 10660 10671 10680 10690 10698 10705 10713 10723 10734 10749 10754 10764 10779 10794 10806 10822 10838 10854 10864 10873 10880 10884
10705 10689 10669 10646 10624 10603 10590 10567 10545 10532 10520 10514 10515 10521 10533 10549 10542 10564 10576 10589 10603 10614 10627 10640 10655 10664 10674 10682 10693 10697 10705 10716 10727 10739 10754 10765 10779 10793 10809 10829 10838 10850 10862 10872 10877
10686 10667 10646 10622 10595 10579 10548 10519 10502 10488 10479 10473 10473 10478 10488 10499 10506 10526 10546 10559 10575 10591 10605 10618 10632 10645 10658 10665 10676 10685 10694 10700 10713 10726 10742 10750 10765 10786 10792 10811 10824 10836 10848 10860 10868
10666 10646 10620 10590 10566 10544 10513 10488 10470 10457 10448 10441 10439 10441 10454 10462 10466 10490 10510 10532 10550 10565 10580 10595 10612 10626 10636 10651 10660 10671 10679 10689 10699 10711 10728 10735 10756 10766 10780 10797 10810 10822 10834 10846 10855
10645 10621 10594 10567 10542 10517 10486 10462 10447 10435 10424 10416 10415 10418 10421 10424 10437 10457 10478 10496 10516 10533 10550 10571 10590 10605 10621 10637 10644 10660 10673 10680 10684 10695 10709 10720 10730 10748 10767 10782 10794 10807 10817 10827 10839
10625 10597 10570 10542 10519 10491 10464 10443 10425 10413 10406 10400 10394 10396 10398 10398 10411 10435 10450 10465 10490 10505 10525 10548 10568 10585 10601 10619 10646 10656 10657 10664 10671 10681 10693 10706 10709 10730 10749 10766 10777 10789 10798 10811 10823
10604 10574 10549 10521 10497 10473 10448 10429 10415 10399 10387 10382 10378 10377 10377 10381 10388 10403 10424 10443 10458 10477 10508 10529 10546 10581 10605 10612 10612 10624 10636 10649 10657 10668 10680 10689 10693 10711 10723 10748 10759 10773 10785 10795 10803
10587 10554 10527 10499 10479 10455 10434 10418 10404 10392 10379 10370 10364 10363 10362 10365 10370 10378 10393 10413 10435 10458 10477 10501 10545 10554 10566 10581 10594 10612 10627 10638 10642 10655 10660 10671 10681 10691 10709 10730 10743 10756 10769 10777 10786
10572 10542 10513 10489 10465 10443 10422 10407 10392 10380 10369 10360 10353 10350 10349 10351 10355 10360 10372 10390 10410 10430 10459 10496 10524 10534 10551 10569 10581 10601 10612 10624 10633 10643 10648 10662 10670 10680 10695 10712 10731 10746 10757 10768 10779
10558 10531 10505 10477 10454 10434 10412 10396 10381 10370 10361 10351 10345 10342 10339 10339 10343 10348 10358 10371 10392 10416 10447 10470 10487 10509 10534 10556 10566 10582 10597 10611 10617 10632 10642 10653 10662 10670 10679 10696 10715 10731 10744 10756 10766
10546 10519 10489 10467 10443 10425 10405 10389 10376 10365 10353 10345 10338 10335 10331 10330 10332 10338 10345 10357 10372 10391 10415 10441 10464 10495 10521 10539 10550 10568 10584 10599 10609 10618 10628 10642 10650 10661 10668 10681 10702 10716 10731 10742 10752
10539 10509 10481 10456 10436 10417 10399 10386 10373 10362 10351 10341 10332 10327 10325 10322 10324 10327 10334 10344 10358 10373 10402 10429 10456 10480 10501 10512 10529 10554 10570 10585 10596 10604 10623 10637 10645 10654 10663 10673 10683 10700 10717 10729 10741
10531 10501 10473 10448 10429 10412 10394 10382 10372 10357 10346 10337 10329 10323 10319 10317 10317 10320 10327 10335 10348 10365 10386 10405 10430 10455 10472 10493 10509 10540 10554 10570 10582 10605 10621 10629 10635 10644 10655 10665 10675 10685 10698 10712 10722
10521 10494 10470 10442 10422 10407 10391 10379 10367 10354 10342 10334 10326 10321 10316 10314 10314 10316 10321 10329 10343 10359 10373 10399 10423 10437 10464 10488 10532 10558 10565 10579 10594 10605 10614 10624 10627 10642 10647 10657 10665 10675 10685 10696 10704
10514 10489 10465 10441 10421 10404 10390 10376 10363 10353 10344 10335 10328 10319 10316 10313 10312 10314 10319 10329 10340 10352 10369 10388 10411 10440 10462 10479 10506 10522 10535 10556 10581 10587 10607 10611 10620 10634 10642 10650 10657 10664 10672 10679 10688
10512 10485 10458 10437 10418 10400 10387 10375 10366 10355 10346 10336 10330 10322 10317 10314 10313 10314 10320 10328 10337 10352 10367 10384 10404 10432 10450 10466 10488 10525 10533 10560 10574 10585 10595 10603 10616 10623 10632 10639 10649 10655 10661 10667 10674
10508 10486 10458 10438 10417 10399 10386 10376 10366 10356 10348 10340 10333 10326 10320 10317 10315 10317 10321 10330 10339 10351 10366 10383 10399 10417 10433 10464 10495 10502 10529 10545 10564 10577 10589 10601 10606 10622 10626 10635 10642 10647 10652 10658 10663
10506 10488 10454 10433 10417 10401 10390 10382 10371 10360 10350 10344 10336 10331 10325 10322 10321 10322 10325 10330 10339 10352 10364 10376 10396 10421 10468 10476 10490 10509 10524 10547 10561 10573 10587 10590 10603 10611 10619 10628 10634 10639 10643 10648 10655
10505 10477 10459 10434 10417 10402 10391 10385 10373 10364 10355 10349 10342 10336 10330 10327 10326 10328 10331 10337 10344 10356 10367 10375 10395 10409 10424 10447 10468 10497 10522 10538 10554 10567 10575 10584 10593 10605 10613 10620 10625 10630 10636 10640 10644
10506 10478 10454 10432 10418 10402 10391 10383 10376 10368 10362 10356 10349 10343 10337 10334 10333 10335 10338 10343 10351 10354 10365 10386 10408 10438 10467 10487 10500 10511 10525 10539 10550 10559 10566 10575 10587 10598 10608 10614 10617 10622 10626 10631 10636
10500 10479 10458 10433 10420 10405 10395 10388 10381 10374 10368 10363 10357 10351 10346 10341 10342 10343 10346 10351 10358 10362 10372 10384 10406 10424 10442 10461 10482 10501 10519 10534 10546 10552 10558 10569 10580 10591 10600 10605 10608 10614 10618 10623 10625
10500 10482 10460 10438 10422 10408 10399 10392 10386 10380 10374 10369 10364 10360 10355 10352 10350 10353 10354 10358 10365 10373 10384 10397 10412 10428 10446 10464 10481 10498 10514 10528 10537 10542 10555 10565 10575 10583 10589 10596 10600 10606 10610 10614 10616
10504 10476 10460 10439 10424 10411 10402 10396 10390 10385 10380 10375 10372 10369 10363 10362 10360 10361 10363 10366 10373 10381 10391 10403 10420 10436 10453 10466 10479 10493 10508 10520 10528 10538 10550 10558 10566 10576 10582 10588 10590 10596 10602 10604 10607